Paul Philippe Ploquin

Paul Philippe Ploquin

Statistiques 2026

  • Courses courues : 403
  • Nb de victoires : 46
  • Nb de places : 131
  • Écart gagnant : 22
  • Réussite à la gagne : 11%
  • Réussite à la place : 33%
Musique : 0a 0m 0a 5m 0a 0a 0a 0a Da Da Da Da 4a Dm 8a 2a Da 5a
DateRangCatégorieAlloc.Dist.HippodromeChevalRed. KmSpé.
13/08/23 4 Trot 40 000€ 2 250m Enghien Soisy Julia de la Noe 1'14"0 Monté
13/08/23 2 Trot 46 000€ 2 875m Enghien Soisy Kepi des Monts 1'15"9 Attelé
13/08/23 D Trot 52 000€ 2 875m Enghien Soisy Kalika du Ris 1'17"4 Attelé
13/08/23 0 Trot 120 000€ 2 875m Enghien Soisy Django du Bocage 1'12"4 Monté lire

Jamais loin dans le parcours, a marqué le pas pour finir.

02/10/23 D Trot 40 000€ 2 875m Enghien Soisy Jupiter Captain Monté
02/10/23 D Trot 40 000€ 2 875m Enghien Soisy Krac de Guibray Attelé
02/10/23 8 Trot 60 000€ 2 875m Enghien Soisy Global Yankee 1'13"7 Attelé
02/10/23 3 Trot 35 000€ 2 875m Enghien Soisy Jaministar 1'14"9 Attelé
12/10/23 D Trot 38 000€ 2 150m Enghien Soisy Let Me Shine Gio Attelé
12/10/23 8 Trot 41 000€ 2 875m Enghien Soisy Ines d'hermes 1'15"2 Attelé
12/10/23 3 Trot 41 000€ 2 150m Enghien Soisy Haurore 1'13"5 Attelé
16/10/23 D Trot 18 000€ 2 150m Enghien Soisy Jaggera Bomb Attelé
16/10/23 D Trot 40 000€ 2 875m Enghien Soisy Jopani Attelé
16/10/23 2 Trot 46 000€ 2 875m Enghien Soisy Hautentica 1'15"1 Attelé
16/10/23 0 Trot 40 000€ 2 250m Enghien Soisy Jingle des Brouets Monté
19/10/23 D Trot 40 000€ 2 150m Enghien Soisy Jasmin d'Ave Attelé
19/10/23 4 Trot 41 000€ 2 150m Enghien Soisy Isofou du Chene 1'13"5 Attelé
19/10/23 3 Trot 59 000€ 2 900m Enghien Soisy Dollar Baby 1'13"3 Monté
21/10/23 7 Trot 53 000€ 2 150m Enghien Soisy Houston Pajelo 1'12"7 Attelé
21/10/23 3 Trot 41 000€ 2 150m Enghien Soisy Ivory Wind 1'13"0 Attelé
21/10/23 4 Trot 35 000€ 2 875m Enghien Soisy Jalna du Buisson 1'15"0 Attelé
21/10/23 D Trot 40 000€ 2 875m Enghien Soisy Kalie de l'Ormerie Monté
17/04/25 8 Trot 18 000€ 2 875m Enghien Soisy Jupanquie Tonique 1'15"5 Attelé
17/04/25 5 Trot 40 000€ 2 150m Enghien Soisy Linotte du Mouchel 1'14"1 Attelé
17/04/25 D Trot 46 000€ 2 875m Enghien Soisy Diabel Attelé lire

A rapidement été disqualifiée.

19/04/25 A Trot 46 000€ 2 875m Enghien Soisy Motteaux Dairpet Attelé
19/04/25 4 Trot 71 000€ 2 875m Enghien Soisy Kaporal des Forges 1'13"4 Attelé lire

Longtemps à l'arrière-garde, a conclu de très belle façon.

19/04/25 5 Trot 68 000€ 2 150m Enghien Soisy Enjoy The Game 1'12"3 Attelé lire

A rejoint les animateurs à un tour du but, se comportant très bien jusqu'à la fin.

19/04/25 D Trot 40 000€ 2 150m Enghien Soisy L'Artiste Zen Attelé
30/04/25 2 Trot 49 000€ 2 875m Enghien Soisy In Love de Blary 1'14"3 Monté lire

Principale animatrice, n'a pu s'opposer à la lauréate près du but.

30/04/25 D Trot 60 000€ 2 875m Enghien Soisy Kassya Attelé
30/04/25 1 Trot 46 000€ 2 250m Enghien Soisy Keeper Perrine 1'12"5 Monté lire

Principal animateur, n'a jamais été approché pour finir.

30/04/25 2 Trot 60 000€ 2 875m Enghien Soisy Pantocrator 1'12"9 Attelé lire

Longtemps sur une troisième ligne, a bien conclu.

30/04/25 5 Trot 40 000€ 2 150m Enghien Soisy Mauny de Play 1'15"5 Attelé
14/06/25 2 Trot 52 000€ 2 875m Enghien Soisy Mistral Castelle 1'16"7 Attelé
14/06/25 6 Trot 46 000€ 2 875m Enghien Soisy Robthebank 1'13"9 Attelé
14/06/25 9 Trot 35 000€ 2 150m Enghien Soisy Lady Angele 1'14"5 Attelé
14/06/25 3 Trot 90 000€ 2 150m Enghien Soisy Unico Broline 1'11"5 Attelé lire

Longtemps au sein du peloton, n'a pas été très heureux dans le dernier tournant avant de bien terminer.

14/06/25 7 Trot 62 000€ 2 875m Enghien Soisy Lash Perrine 1'14"9 Attelé lire

Après avoir figuré, n'a pas été capable de changer de rythme pour finir.

14/06/25 4 Trot 68 000€ 2 875m Enghien Soisy Ileo Pierji 1'14"8 Monté
14/06/25 D Trot 59 000€ 2 900m Enghien Soisy Hautbrion Colmi Attelé
14/06/25 5 Trot 52 000€ 2 875m Enghien Soisy Midnight Express 1'16"8 Attelé
26/06/25 A Trot 18 000€ 2 900m Enghien Soisy Motteaux Dairpet Attelé
26/06/25 7 Trot 40 000€ 2 150m Enghien Soisy Marquise Darling 1'15"4 Attelé
26/06/25 5 Trot 18 000€ 2 900m Enghien Soisy Great d'Arry 1'15"4 Attelé
26/06/25 9 Trot 41 000€ 2 150m Enghien Soisy Killer Angot 1'14"1 Attelé
28/06/25 3 Trot 18 000€ 2 150m Enghien Soisy Kassiano d'Is 1'13"7 Attelé
28/06/25 4 Trot 68 000€ 2 150m Enghien Soisy Nice Present 1'12"5 Attelé lire

Longtemps à l'arrière-garde, a comblé du terrain dans la ligne opposée, puis a conclu fort honorablement.

28/06/25 3 Trot 52 000€ 2 875m Enghien Soisy Mister du Bas Bosq 1'18"6 Monté
28/06/25 3 Trot 46 000€ 2 875m Enghien Soisy Kapella Vet 1'13"3 Attelé lire

Jamais loin dans le parcours, n'a perdu le premier accessit que près du but.